Windom, MN

2:33 AM CDT on April 20, 2018 (GMT -0500)
Windom Municipal

Weather History for KMWM - November, 2013

Change the Weather History Date:

Monday, November 18, 2013

  Actual Average Record
Temperature  
Mean Temperature 32 °F -  
Max Temperature 41 °F 40 °F 68 °F (1999)
Min Temperature 24 °F 23 °F 1 °F (1989)
Degree Days  
Heating Degree Days 32    
Moisture  
Dew Point 25 °F    
Average Humidity 75    
Maximum Humidity 87    
Minimum Humidity 56    
Precipitation  
Precipitation 0.00 in - - ()
Sea Level Pressure  
Sea Level Pressure 30.12 in    
Wind  
Wind Speed 12 mph (NW)    
Max Wind Speed 24 mph    
Max Gust Speed 31 mph    
Visibility 10 miles    
Events      
Averages and records for this station are not official NWS values.
T = Trace of Precipitation, MM = Missing Value Source: NWS Daily Summary

Daily Weather History Graph

Daily Weather History Graph

Search for Another Location

Airport or City:

Astronomy

Nov. 18, 2013 Rise Set
Actual Time 7:19 AM CST 4:51 PM CST
Civil Twilight 6:48 AM CST 5:22 PM CST
Nautical Twilight 6:12 AM CST 5:58 PM CST
Astronomical Twilight 5:38 AM CST 6:32 PM CST
Moon 5:54 PM CST (11/18) 8:09 AM CST (11/18)
Length of Visible Light 10h 34m
Length of Day
9h 32m
Full, 99% of the Moon is Illuminated
Nov 18
Full
Nov 25
Last Quarter
Dec 2
New
Dec 9
First Quarter
Dec 17
Full

Hourly Weather History & Observations

Time (CST) Temp. Windchill Dew Point Humidity Pressure Visibility Wind Dir Wind Speed Gust Speed Precip Events Conditions
12:13 AM 33.8 °F 24.3 °F 28.4 °F 81% 29.93 in 10.0 mi West 13.8 mph - N/A   Mostly Cloudy
12:32 AM 33.8 °F 24.8 °F 28.4 °F 81% 29.93 in 10.0 mi WNW 12.7 mph - N/A   Overcast
12:52 AM 33.8 °F 23.9 °F 28.4 °F 81% 29.93 in 10.0 mi WNW 15.0 mph - N/A   Overcast
1:13 AM 35.6 °F 25.9 °F 28.4 °F 75% 29.93 in 10.0 mi WNW 16.1 mph 23.0 mph N/A   Overcast
1:32 AM 35.6 °F 26.6 °F 28.4 °F 75% 29.93 in 10.0 mi WNW 13.8 mph 18.4 mph N/A   Overcast
1:52 AM 35.6 °F 26.2 °F 28.4 °F 75% 29.94 in 10.0 mi WNW 15.0 mph 21.9 mph N/A   Overcast
2:13 AM 33.8 °F 24.8 °F 28.4 °F 81% 29.95 in 10.0 mi NW 12.7 mph - N/A   Overcast
2:32 AM 33.8 °F 23.9 °F 28.4 °F 81% 29.96 in 10.0 mi NW 15.0 mph - N/A   Overcast
2:52 AM 32.0 °F 23.0 °F 28.4 °F 87% 29.97 in 10.0 mi NW 11.5 mph - N/A   Mostly Cloudy
3:13 AM 32.0 °F 22.5 °F 28.4 °F 87% 29.97 in 10.0 mi WNW 12.7 mph - N/A   Overcast
3:32 AM 32.0 °F 22.5 °F 28.4 °F 87% 29.98 in 10.0 mi WNW 12.7 mph 17.3 mph N/A   Overcast
3:52 AM 30.2 °F 18.1 °F 26.6 °F 86% 30.00 in 10.0 mi WNW 18.4 mph - N/A   Mostly Cloudy
4:13 AM 32.0 °F 19.8 °F 26.6 °F 80% 30.01 in 10.0 mi West 20.7 mph 31.1 mph N/A   Overcast
4:32 AM 32.0 °F 20.8 °F 24.8 °F 75% 30.01 in 10.0 mi WNW 17.3 mph 27.6 mph N/A   Overcast
4:53 AM 32.0 °F 19.5 °F 24.8 °F 75% 30.02 in 10.0 mi WNW 21.9 mph 27.6 mph N/A   Overcast
5:13 AM 32.0 °F 20.8 °F 24.8 °F 75% 30.03 in 10.0 mi WNW 17.3 mph 28.8 mph N/A   Overcast
5:32 AM 30.2 °F 16.8 °F 24.8 °F 80% 30.04 in 10.0 mi WNW 23.0 mph 26.5 mph N/A   Overcast
5:52 AM 30.2 °F 19.8 °F 24.8 °F 80% 30.04 in 10.0 mi WNW 13.8 mph 21.9 mph N/A   Mostly Cloudy
6:13 AM 28.4 °F 18.0 °F 24.8 °F 86% 30.04 in 10.0 mi WNW 12.7 mph - N/A   Clear
6:32 AM 28.4 °F 17.5 °F 24.8 °F 86% 30.06 in 10.0 mi WNW 13.8 mph 18.4 mph N/A   Clear
6:52 AM 28.4 °F 17.5 °F 24.8 °F 86% 30.07 in 10.0 mi WNW 13.8 mph - N/A   Clear
7:13 AM 28.4 °F 17.0 °F 24.8 °F 86% 30.08 in 10.0 mi WNW 15.0 mph - N/A   Clear
7:32 AM 28.4 °F 18.5 °F 24.8 °F 86% 30.09 in 10.0 mi WNW 11.5 mph - N/A   Scattered Clouds
7:52 AM 28.4 °F 19.1 °F 24.8 °F 86% 30.10 in 10.0 mi WNW 10.4 mph - N/A   Scattered Clouds
8:13 AM 28.4 °F 18.5 °F 24.8 °F 86% 30.11 in 10.0 mi WNW 11.5 mph - N/A   Clear
8:32 AM 30.2 °F 19.3 °F 24.8 °F 80% 30.12 in 10.0 mi WNW 15.0 mph - N/A   Clear
8:53 AM 30.2 °F 17.4 °F 24.8 °F 80% 30.12 in 10.0 mi NW 20.7 mph 26.5 mph N/A   Clear
9:12 AM 30.2 °F 17.8 °F 23.0 °F 75% 30.13 in 10.0 mi NW 19.6 mph 27.6 mph N/A   Scattered Clouds
9:32 AM 32.0 °F 18.9 °F 24.8 °F 75% 30.14 in 10.0 mi NW 24.2 mph - N/A   Clear
9:53 AM 33.8 °F 23.2 °F 24.8 °F 70% 30.15 in 10.0 mi NW 17.3 mph 25.3 mph N/A   Scattered Clouds
10:12 AM 33.8 °F 22.8 °F 24.8 °F 70% 30.16 in 10.0 mi NW 18.4 mph 24.2 mph N/A   Clear
10:32 AM 33.8 °F 23.5 °F 24.8 °F 70% 30.17 in 10.0 mi NW 16.1 mph - N/A   Clear
10:53 AM 35.6 °F 25.9 °F 24.8 °F 65% 30.17 in 10.0 mi WNW 16.1 mph 21.9 mph N/A   Clear
11:12 AM 35.6 °F 25.9 °F 24.8 °F 65% 30.18 in 10.0 mi WNW 16.1 mph 24.2 mph N/A   Clear
11:32 AM 37.4 °F 28.2 °F 24.8 °F 60% 30.18 in 10.0 mi West 16.1 mph 21.9 mph N/A   Clear
11:53 AM 37.4 °F 28.9 °F 24.8 °F 60% 30.18 in 10.0 mi WNW 13.8 mph - N/A   Clear
12:12 PM 37.4 °F 29.8 °F 24.8 °F 60% 30.18 in 10.0 mi NW 11.5 mph 19.6 mph N/A   Clear
12:32 PM 39.2 °F 32.5 °F 24.8 °F 56% 30.17 in 10.0 mi WNW 10.4 mph - N/A   Clear
12:53 PM 39.2 °F 32.0 °F 24.8 °F 56% 30.17 in 10.0 mi West 11.5 mph - N/A   Clear
1:12 PM 39.2 °F 33.0 °F 24.8 °F 56% 30.17 in 10.0 mi WNW 9.2 mph 17.3 mph N/A   Clear
1:33 PM 39.2 °F 32.0 °F 24.8 °F 56% 30.17 in 10.0 mi WNW 11.5 mph 16.1 mph N/A   Clear
1:52 PM 39.2 °F 33.6 °F 24.8 °F 56% 30.17 in 10.0 mi West 8.1 mph - N/A   Clear
2:12 PM 41.0 °F 34.7 °F 26.6 °F 57% 30.17 in 10.0 mi WNW 10.4 mph - N/A   Clear
2:33 PM 41.0 °F 35.8 °F 26.6 °F 57% 30.17 in 10.0 mi WNW 8.1 mph - N/A   Clear
2:52 PM 41.0 °F 34.7 °F 26.6 °F 57% 30.17 in 10.0 mi WNW 10.4 mph - N/A   Clear
3:12 PM 41.0 °F 37.1 °F 26.6 °F 57% 30.17 in 10.0 mi WNW 5.8 mph - N/A   Clear
3:33 PM 41.0 °F 39.0 °F 26.6 °F 57% 30.16 in 10.0 mi North 3.5 mph - N/A   Clear
3:52 PM 39.2 °F 37.0 °F 26.6 °F 61% 30.17 in 10.0 mi NNW 3.5 mph - N/A   Clear
4:12 PM 39.2 °F - 26.6 °F 61% 30.18 in 10.0 mi Calm Calm - N/A   Clear
4:33 PM 37.4 °F 33.8 °F 26.6 °F 65% 30.18 in 10.0 mi North 4.6 mph - N/A   Clear
4:52 PM 35.6 °F 31.7 °F 26.6 °F 70% 30.18 in 10.0 mi North 4.6 mph - N/A   Clear
5:12 PM 33.8 °F - 26.6 °F 75% 30.18 in 10.0 mi Calm Calm - N/A   Clear
5:33 PM 30.2 °F 25.4 °F 24.8 °F 80% 30.18 in 10.0 mi NE 4.6 mph - N/A   Clear
5:52 PM 28.4 °F 23.3 °F 24.8 °F 86% 30.19 in 10.0 mi NE 4.6 mph - N/A   Clear
6:12 PM 28.4 °F 24.6 °F 23.0 °F 80% 30.19 in 10.0 mi ENE 3.5 mph - N/A   Clear
6:33 PM 26.6 °F 21.2 °F 21.2 °F 80% 30.19 in 10.0 mi NE 4.6 mph - N/A   Clear
6:52 PM 26.6 °F 20.0 °F 21.2 °F 80% 30.20 in 10.0 mi ENE 5.8 mph - N/A   Clear
7:13 PM 24.8 °F 19.1 °F 21.2 °F 86% 30.20 in 10.0 mi East 4.6 mph - N/A   Clear
7:33 PM 26.6 °F 22.6 °F 21.2 °F 80% 30.20 in 10.0 mi ESE 3.5 mph - N/A   Clear
7:52 PM 28.4 °F - 23.0 °F 80% 30.21 in 10.0 mi Calm Calm - N/A   Clear
8:13 PM 26.6 °F - 21.2 °F 80% 30.21 in 10.0 mi Calm Calm - N/A   Clear
8:33 PM 26.6 °F - 21.2 °F 80% 30.21 in 10.0 mi Calm Calm - N/A   Clear
8:52 PM 26.6 °F 22.6 °F 21.2 °F 80% 30.21 in 10.0 mi ESE 3.5 mph - N/A   Clear
9:12 PM 26.6 °F 21.2 °F 21.2 °F 80% 30.22 in 10.0 mi ESE 4.6 mph - N/A   Clear
9:33 PM 26.6 °F - 21.2 °F 80% 30.21 in 10.0 mi Calm Calm - N/A   Clear
9:52 PM 26.6 °F 21.2 °F 21.2 °F 80% 30.21 in 10.0 mi SE 4.6 mph - N/A   Clear
10:13 PM 26.6 °F 21.2 °F 21.2 °F 80% 30.21 in 10.0 mi ESE 4.6 mph - N/A   Clear
10:33 PM 26.6 °F - 21.2 °F 80% 30.20 in 10.0 mi Calm Calm - N/A   Clear
10:52 PM 26.6 °F 22.6 °F 21.2 °F 80% 30.20 in 10.0 mi SE 3.5 mph - N/A   Clear
11:13 PM 24.8 °F 20.5 °F 21.2 °F 86% 30.20 in 10.0 mi SE 3.5 mph - N/A   Clear
11:33 PM 26.6 °F 21.2 °F 21.2 °F 80% 30.20 in 10.0 mi SE 4.6 mph - N/A   Clear
11:52 PM 24.8 °F - 21.2 °F 86% 30.20 in 10.0 mi Calm Calm - N/A   Clear